| time (UTC) | temp F | wind direction | speed MPH | gust MPH | rain 1hr in | rain 24hr in | rain mn in | humidity % | barometer mb |
| 20260502210231 | 73 | 0 | 4.0 | 11.0 | 0.00 | 0.00 | 0.00 | 15 | 1018.2 |
| 20260502205732 | 73 | 0 | 5.0 | 11.0 | 0.00 | 0.00 | 0.00 | 15 | 1018.3 |
| 20260502205504 | 73 | 0 | 5.0 | 13.0 | 0.00 | 0.00 | 0.00 | 16 | 1018.4 |
| 20260502204730 | 73 | 0 | 3.0 | 13.0 | 0.00 | 0.00 | 0.00 | 15 | 1018.6 |
| 20260502204231 | 73 | 0 | 1.0 | 5.0 | 0.00 | 0.00 | 0.00 | 21 | 1018.6 |
| 20260502203732 | 72 | 0 | 2.0 | 6.0 | 0.00 | 0.00 | 0.00 | 17 | 1018.7 |
| 20260502203228 | 72 | 0 | 2.0 | 6.0 | 0.00 | 0.00 | 0.00 | 19 | 1018.8 |
| 20260502202729 | 72 | 0 | 3.0 | 8.0 | 0.00 | 0.00 | 0.00 | 16 | 1018.8 |
| 20260502202229 | 72 | 0 | 3.0 | 8.0 | 0.00 | 0.00 | 0.00 | 18 | 1018.8 |
| 20260502201729 | 72 | 0 | 2.0 | 6.0 | 0.00 | 0.00 | 0.00 | 17 | 1018.9 |
| 20260502201230 | 72 | 140 | 2.0 | 6.0 | 0.00 | 0.00 | 0.00 | 15 | 1019.0 |
| 20260502200728 | 72 | 0 | 3.0 | 7.0 | 0.00 | 0.00 | 0.00 | 18 | 1018.9 |
| 20260502200500 | 71 | 0 | 3.0 | 7.0 | 0.00 | 0.00 | 0.00 | 19 | 1019.0 |
| 20260502195725 | 72 | 0 | 4.0 | 9.0 | 0.00 | 0.00 | 0.00 | 15 | 1019.0 |
| 20260502195225 | 71 | 0 | 5.0 | 10.0 | 0.00 | 0.00 | 0.00 | 19 | 1019.1 |
| 20260502194729 | 71 | 0 | 2.0 | 5.0 | 0.00 | 0.00 | 0.00 | 22 | 1019.3 |
| 20260502194725 | 71 | 0 | 3.0 | 10.0 | 0.00 | 0.00 | 0.00 | 17 | 1019.3 |
| 20260502193726 | 70 | 0 | 2.0 | 4.0 | 0.00 | 0.00 | 0.00 | 20 | 1019.3 |
| 20260502193225 | 70 | 0 | 2.0 | 7.0 | 0.00 | 0.00 | 0.00 | 16 | 1019.4 |
| 20260502192725 | 70 | 0 | 3.0 | 7.0 | 0.00 | 0.00 | 0.00 | 21 | 1019.5 |
| 20260502192458 | 69 | 0 | 3.0 | 8.0 | 0.00 | 0.00 | 0.00 | 20 | 1019.5 |
| 20260502191725 | 69 | 0 | 5.0 | 8.0 | 0.00 | 0.00 | 0.00 | 21 | 1019.6 |
| 20260502191458 | 69 | 0 | 5.0 | 9.0 | 0.00 | 0.00 | 0.00 | 18 | 1019.6 |
| 20260502190958 | 70 | 0 | 5.0 | 9.0 | 0.00 | 0.00 | 0.00 | 18 | 1019.7 |
| 20260502190226 | 70 | 0 | 4.0 | 9.0 | 0.00 | 0.00 | 0.00 | 20 | 1019.8 |
| 20260502185724 | 70 | 0 | 4.0 | 11.0 | 0.00 | 0.00 | 0.00 | 23 | 1019.8 |
| 20260502185225 | 69 | 0 | 5.0 | 11.0 | 0.00 | 0.00 | 0.00 | 19 | 1020.1 |
| 20260502184725 | 69 | 0 | 5.0 | 10.0 | 0.00 | 0.00 | 0.00 | 19 | 1020.1 |
| 20260502184226 | 69 | 0 | 4.0 | 10.0 | 0.00 | 0.00 | 0.00 | 19 | 1020.2 |
| 20260502183724 | 69 | 0 | 3.0 | 8.0 | 0.00 | 0.00 | 0.00 | 21 | 1020.2 |
| 20260502183225 | 69 | 0 | 3.0 | 10.0 | 0.00 | 0.00 | 0.00 | 20 | 1020.3 |
| 20260502182727 | 68 | 0 | 3.0 | 10.0 | 0.00 | 0.00 | 0.00 | 20 | 1020.4 |
| 20260502182458 | 68 | 0 | 3.0 | 6.0 | 0.00 | 0.00 | 0.00 | 20 | 1020.4 |
| 20260502181726 | 67 | 0 | 5.0 | 10.0 | 0.00 | 0.00 | 0.00 | 21 | 1020.5 |
| 20260502181223 | 68 | 0 | 4.0 | 10.0 | 0.00 | 0.00 | 0.00 | 23 | 1020.6 |
| 20260502180723 | 68 | 0 | 4.0 | 8.0 | 0.00 | 0.00 | 0.00 | 23 | 1020.6 |
| 20260502180223 | 68 | 0 | 4.0 | 10.0 | 0.00 | 0.00 | 0.00 | 20 | 1020.6 |
| 20260502170452 | 65 | 0 | 2.0 | 7.0 | 0.00 | 0.00 | 0.00 | 29 | 1021.2 |
| 20260502164223 | 64 | 0 | 1.0 | 5.0 | 0.00 | 0.00 | 0.00 | 33 | 1021.4 |
| 20260502163720 | 63 | 0 | 1.0 | 5.0 | 0.00 | 0.00 | 0.00 | 29 | 1021.6 |
| 20260502163219 | 62 | 0 | 1.0 | 5.0 | 0.00 | 0.00 | 0.00 | 29 | 1021.6 |
| 20260502162720 | 62 | 0 | 1.0 | 4.0 | 0.00 | 0.00 | 0.00 | 34 | 1021.6 |
| 20260502162450 | 61 | 0 | 2.0 | 6.0 | 0.00 | 0.00 | 0.00 | 31 | 1021.7 |
| 20260502161719 | 61 | 0 | 2.0 | 6.0 | 0.00 | 0.00 | 0.00 | 29 | 1021.7 |
| 20260502161217 | 61 | 0 | 2.0 | 5.0 | 0.00 | 0.00 | 0.00 | 35 | 1021.8 |
| 20260502160717 | 60 | 152 | 3.0 | 6.0 | 0.00 | 0.00 | 0.00 | 31 | 1021.8 |
| 20260502160218 | 60 | 0 | 2.0 | 6.0 | 0.00 | 0.00 | 0.00 | 33 | 1021.8 |
| 20260502152208 | 55 | 0 | 2.0 | 5.0 | 0.00 | 0.00 | 0.00 | 40 | 1022.0 |
| 20260502151936 | 55 | 0 | 2.0 | 4.0 | 0.00 | 0.00 | 0.00 | 40 | 1022.0 |
| 20260502151204 | 53 | 0 | 2.0 | 5.0 | 0.00 | 0.00 | 0.00 | 43 | 1022.1 |
| 20260502150705 | 52 | 0 | 1.0 | 5.0 | 0.00 | 0.00 | 0.00 | 46 | 1022.3 |
| 20260502150202 | 51 | 0 | 1.0 | 4.0 | 0.00 | 0.00 | 0.00 | 45 | 1022.3 |
| 20260502130638 | 34 | 0 | 0.0 | 1.0 | 0.00 | 0.00 | 0.00 | 78 | 1022.5 |
| 20260502130137 | 34 | 0 | 0.0 | 1.0 | 0.00 | 0.00 | 0.00 | 78 | 1022.5 |
| 20260502123631 | 32 | 64 | 0.0 | 1.0 | 0.00 | 0.00 | 0.00 | 82 | 1022.3 |
| 20260502123129 | 31 | 0 | 0.0 | 1.0 | 0.00 | 0.00 | 0.00 | 82 | 1022.3 |
| 20260502122902 | 31 | 0 | 0.0 | 0.0 | 0.00 | 0.00 | 0.00 | 81 | 1022.1 |
| 20260502122130 | 31 | 0 | 0.0 | 0.0 | 0.00 | 0.00 | 0.00 | 79 | 1022.0 |
| 20260502121628 | 31 | 0 | 0.0 | 0.0 | 0.00 | 0.00 | 0.00 | 78 | 1022.3 |
| 20260502121127 | 31 | 0 | 0.0 | 0.0 | 0.00 | 0.00 | 0.00 | 78 | 1022.1 |
| 20260502120627 | 32 | 0 | 0.0 | 0.0 | 0.00 | 0.00 | 0.00 | 77 | 1022.0 |
| 20260502120127 | 32 | 0 | 0.0 | 0.0 | 0.00 | 0.00 | 0.00 | 78 | 1022.0 |
| 20260502115628 | 32 | 0 | 0.0 | 0.0 | 0.00 | 0.00 | 0.00 | 78 | 1022.0 |
| 20260502115359 | 32 | 0 | 0.0 | 0.0 | 0.00 | 0.00 | 0.00 | 77 | 1022.1 |
| 20260502115246 | 32 | 0 | 0.0 | 0.0 | 0.00 | 0.00 | 0.00 | 78 | 1022.1 |
| 20260502114127 | 32 | 0 | 0.0 | 0.0 | 0.00 | 0.00 | 0.00 | 77 | 1022.1 |
| 20260502113628 | 32 | 0 | 0.0 | 0.0 | 0.00 | 0.00 | 0.00 | 77 | 1022.0 |
| 20260502113129 | 33 | 0 | 0.0 | 0.0 | 0.00 | 0.00 | 0.00 | 76 | 1022.1 |
| 20260502112627 | 33 | 0 | 0.0 | 0.0 | 0.00 | 0.00 | 0.00 | 75 | 1022.1 |
| 20260502112129 | 33 | 0 | 0.0 | 0.0 | 0.00 | 0.00 | 0.00 | 74 | 1022.1 |
| 20260502111857 | 33 | 0 | 0.0 | 0.0 | 0.00 | 0.00 | 0.00 | 74 | 1022.3 |
| 20260502111127 | 33 | 0 | 0.0 | 0.0 | 0.00 | 0.00 | 0.00 | 72 | 1022.3 |
| 20260502110858 | 33 | 0 | 0.0 | 0.0 | 0.00 | 0.00 | 0.00 | 72 | 1022.4 |
| 20260502110127 | 33 | 0 | 0.0 | 0.0 | 0.00 | 0.00 | 0.00 | 72 | 1022.3 |
| 20260502105629 | 33 | 0 | 0.0 | 0.0 | 0.00 | 0.00 | 0.00 | 74 | 1022.3 |
| 20260502105128 | 34 | 0 | 0.0 | 0.0 | 0.00 | 0.00 | 0.00 | 74 | 1022.1 |
| 20260502104628 | 34 | 0 | 0.0 | 0.0 | 0.00 | 0.00 | 0.00 | 74 | 1022.1 |
| 20260502104128 | 34 | 0 | 0.0 | 0.0 | 0.00 | 0.00 | 0.00 | 72 | 1022.1 |
| 20260502103626 | 34 | 0 | 0.0 | 0.0 | 0.00 | 0.00 | 0.00 | 72 | 1022.1 |
| 20260502103127 | 34 | 0 | 0.0 | 0.0 | 0.00 | 0.00 | 0.00 | 73 | 1022.3 |
| 20260502102623 | 35 | 0 | 0.0 | 0.0 | 0.00 | 0.00 | 0.00 | 71 | 1022.1 |
| 20260502102126 | 35 | 0 | 0.0 | 0.0 | 0.00 | 0.00 | 0.00 | 73 | 1022.0 |
| 20260502101853 | 35 | 0 | 0.0 | 0.0 | 0.00 | 0.00 | 0.00 | 70 | 1022.1 |
| 20260502101122 | 35 | 0 | 0.0 | 0.0 | 0.00 | 0.00 | 0.00 | 68 | 1022.0 |
| 20260502100622 | 35 | 0 | 0.0 | 0.0 | 0.00 | 0.00 | 0.00 | 67 | 1022.0 |
| 20260502100122 | 35 | 0 | 0.0 | 0.0 | 0.00 | 0.00 | 0.00 | 70 | 1022.0 |
| 20260502091350 | 36 | 63 | 0.0 | 0.0 | 0.00 | 0.00 | 0.00 | 65 | 1021.8 |
| 20260502090619 | 36 | 63 | 0.0 | 0.0 | 0.00 | 0.00 | 0.00 | 65 | 1021.7 |
| 20260502090124 | 37 | 0 | 0.0 | 0.0 | 0.00 | 0.00 | 0.00 | 65 | 1021.7 |
| 20260502090119 | 37 | 67 | 0.0 | 0.0 | 0.00 | 0.00 | 0.00 | 66 | 1021.7 |
| 20260502071113 | 42 | 0 | 1.0 | 2.0 | 0.00 | 0.00 | 0.00 | 60 | 1021.7 |
| 20260502070611 | 42 | 0 | 1.0 | 2.0 | 0.00 | 0.00 | 0.00 | 61 | 1021.7 |
| 20260502070113 | 42 | 0 | 1.0 | 2.0 | 0.00 | 0.00 | 0.00 | 62 | 1021.7 |
| 20260502065612 | 41 | 0 | 1.0 | 2.0 | 0.00 | 0.00 | 0.00 | 63 | 1021.7 |
| 20260502065109 | 41 | 0 | 0.0 | 2.0 | 0.00 | 0.00 | 0.00 | 61 | 1021.7 |
| 20260502064610 | 41 | 11 | 0.0 | 0.0 | 0.00 | 0.00 | 0.00 | 61 | 1021.7 |
| 20260502064109 | 41 | 11 | 0.0 | 0.0 | 0.00 | 0.00 | 0.00 | 60 | 1021.7 |
| 20260502063610 | 42 | 11 | 0.0 | 0.0 | 0.00 | 0.00 | 0.00 | 61 | 1021.7 |
| 20260502063109 | 42 | 11 | 0.0 | 1.0 | 0.00 | 0.00 | 0.00 | 60 | 1021.6 |
| 20260502062610 | 42 | 11 | 0.0 | 2.0 | 0.00 | 0.00 | 0.00 | 59 | 1021.7 |
| 20260502062109 | 42 | 0 | 0.0 | 2.0 | 0.00 | 0.00 | 0.00 | 57 | 1021.7 |
| 20260502061609 | 42 | 15 | 0.0 | 2.0 | 0.00 | 0.00 | 0.00 | 57 | 1021.7 |
| 20260502061341 | 42 | 0 | 0.0 | 2.0 | 0.00 | 0.00 | 0.00 | 54 | 1021.7 |
| 20260502060608 | 42 | 0 | 0.0 | 2.0 | 0.00 | 0.00 | 0.00 | 53 | 1021.6 |
| 20260502060107 | 42 | 0 | 0.0 | 0.0 | 0.00 | 0.00 | 0.00 | 53 | 1021.6 |
| 20260502055607 | 42 | 0 | 0.0 | 0.0 | 0.00 | 0.00 | 0.00 | 54 | 1021.6 |
| 20260502055107 | 42 | 0 | 0.0 | 0.0 | 0.00 | 0.00 | 0.00 | 54 | 1021.6 |
| 20260502054608 | 42 | 0 | 0.0 | 1.0 | 0.00 | 0.00 | 0.00 | 53 | 1021.6 |
| 20260502054339 | 43 | 0 | 0.0 | 1.0 | 0.00 | 0.00 | 0.00 | 54 | 1021.6 |
| 20260502053839 | 43 | 0 | 0.0 | 1.0 | 0.00 | 0.00 | 0.00 | 51 | 1021.6 |
| 20260502053109 | 43 | 0 | 0.0 | 0.0 | 0.00 | 0.00 | 0.00 | 51 | 1021.6 |
| 20260502052608 | 44 | 0 | 0.0 | 1.0 | 0.00 | 0.00 | 0.00 | 51 | 1021.4 |
| 20260502052338 | 44 | 0 | 0.0 | 2.0 | 0.00 | 0.00 | 0.00 | 52 | 1021.4 |
| 20260502052226 | 44 | 0 | 0.0 | 2.0 | 0.00 | 0.00 | 0.00 | 47 | 1021.4 |
| 20260502051107 | 44 | 0 | 0.0 | 0.0 | 0.00 | 0.00 | 0.00 | 50 | 1021.4 |
| 20260502050606 | 45 | 0 | 0.0 | 0.0 | 0.00 | 0.00 | 0.00 | 48 | 1021.4 |
| 20260502050105 | 45 | 0 | 0.0 | 0.0 | 0.00 | 0.00 | 0.00 | 48 | 1021.3 |
| 20260502045606 | 45 | 0 | 0.0 | 0.0 | 0.00 | 0.00 | 0.00 | 53 | 1021.3 |
| 20260502045105 | 46 | 0 | 0.0 | 0.0 | 0.00 | 0.00 | 0.00 | 49 | 1021.3 |
| 20260502044605 | 46 | 0 | 0.0 | 0.0 | 0.00 | 0.00 | 0.00 | 49 | 1021.3 |
| 20260502044106 | 46 | 0 | 0.0 | 0.0 | 0.00 | 0.00 | 0.00 | 46 | 1021.3 |
| 20260502043604 | 47 | 0 | 0.0 | 0.0 | 0.00 | 0.00 | 0.00 | 46 | 1021.3 |
| 20260502043103 | 47 | 0 | 0.0 | 0.0 | 0.00 | 0.00 | 0.00 | 44 | 1021.3 |
| 20260502042605 | 47 | 0 | 0.0 | 2.0 | 0.00 | 0.00 | 0.00 | 41 | 1021.2 |
| 20260502042104 | 48 | 0 | 1.0 | 2.0 | 0.00 | 0.00 | 0.00 | 43 | 1021.2 |
| 20260502041604 | 48 | 0 | 1.0 | 2.0 | 0.00 | 0.00 | 0.00 | 42 | 1021.2 |
| 20260502041103 | 48 | 0 | 0.0 | 2.0 | 0.00 | 0.00 | 0.00 | 41 | 1021.1 |
| 20260502040604 | 49 | 0 | 0.0 | 2.0 | 0.00 | 0.00 | 0.00 | 38 | 1021.1 |
| 20260502035835 | 49 | 0 | 0.0 | 0.0 | 0.00 | 0.00 | 0.00 | 37 | 1020.9 |
| 20260502035103 | 50 | 0 | 0.0 | 0.0 | 0.00 | 0.00 | 0.00 | 38 | 1020.9 |
| 20260502034604 | 50 | 0 | 0.0 | 0.0 | 0.00 | 0.00 | 0.00 | 35 | 1020.8 |
| 20260502034101 | 51 | 0 | 0.0 | 3.0 | 0.00 | 0.00 | 0.00 | 36 | 1020.6 |
| 20260502033600 | 51 | 0 | 1.0 | 3.0 | 0.00 | 0.00 | 0.00 | 37 | 1020.6 |
| 20260502033102 | 51 | 0 | 1.0 | 3.0 | 0.00 | 0.00 | 0.00 | 33 | 1020.5 |
| 20260502032603 | 51 | 0 | 1.0 | 4.0 | 0.00 | 0.00 | 0.00 | 33 | 1020.4 |
| 20260502032101 | 51 | 0 | 1.0 | 4.0 | 0.00 | 0.00 | 0.00 | 33 | 1020.3 |
| 20260502031600 | 52 | 0 | 1.0 | 3.0 | 0.00 | 0.00 | 0.00 | 32 | 1020.3 |
| 20260502031332 | 52 | 0 | 1.0 | 3.0 | 0.00 | 0.00 | 0.00 | 31 | 1020.3 |
| 20260502030558 | 52 | 0 | 2.0 | 4.0 | 0.00 | 0.00 | 0.00 | 31 | 1020.2 |
| 20260502030059 | 53 | 0 | 2.0 | 4.0 | 0.00 | 0.00 | 0.00 | 31 | 1020.2 |
| 20260502025829 | 53 | 0 | 2.0 | 5.0 | 0.00 | 0.00 | 0.00 | 32 | 1020.1 |
| 20260502025056 | 53 | 0 | 2.0 | 5.0 | 0.00 | 0.00 | 0.00 | 30 | 1020.1 |
| 20260502024555 | 54 | 0 | 3.0 | 6.0 | 0.00 | 0.00 | 0.00 | 30 | 1019.9 |
| 20260502024055 | 54 | 0 | 3.0 | 6.0 | 0.00 | 0.00 | 0.00 | 29 | 1019.8 |
| 20260502023553 | 54 | 350 | 2.0 | 6.0 | 0.00 | 0.00 | 0.00 | 30 | 1019.8 |
| 20260502023054 | 55 | 0 | 2.0 | 4.0 | 0.00 | 0.00 | 0.00 | 29 | 1019.6 |
| 20260502022554 | 55 | 0 | 2.0 | 3.0 | 0.00 | 0.00 | 0.00 | 28 | 1019.5 |
| 20260502022054 | 56 | 0 | 2.0 | 3.0 | 0.00 | 0.00 | 0.00 | 28 | 1019.5 |
| 20260502021554 | 56 | 0 | 2.0 | 5.0 | 0.00 | 0.00 | 0.00 | 29 | 1019.3 |
| 20260502021053 | 56 | 0 | 3.0 | 6.0 | 0.00 | 0.00 | 0.00 | 29 | 1019.3 |
| 20260502020553 | 57 | 0 | 3.0 | 6.0 | 0.00 | 0.00 | 0.00 | 27 | 1019.3 |
| 20260502020053 | 58 | 0 | 3.0 | 6.0 | 0.00 | 0.00 | 0.00 | 27 | 1019.1 |
| 20260502015551 | 58 | 0 | 4.0 | 6.0 | 0.00 | 0.00 | 0.00 | 27 | 1019.1 |
| 20260502015053 | 58 | 0 | 4.0 | 9.0 | 0.00 | 0.00 | 0.00 | 27 | 1019.1 |
| 20260502014551 | 59 | 0 | 4.0 | 9.0 | 0.00 | 0.00 | 0.00 | 26 | 1018.9 |
| 20260502014051 | 59 | 0 | 5.0 | 10.0 | 0.00 | 0.00 | 0.00 | 26 | 1018.9 |
| 20260502013551 | 60 | 0 | 5.0 | 10.0 | 0.00 | 0.00 | 0.00 | 25 | 1018.8 |
| 20260502013051 | 61 | 0 | 5.0 | 9.0 | 0.00 | 0.00 | 0.00 | 25 | 1018.9 |
| 20260502012822 | 61 | 0 | 5.0 | 13.0 | 0.00 | 0.00 | 0.00 | 24 | 1018.8 |
| 20260502012052 | 62 | 0 | 5.0 | 13.0 | 0.00 | 0.00 | 0.00 | 23 | 1018.7 |
| 20260502011551 | 63 | 0 | 5.0 | 12.0 | 0.00 | 0.00 | 0.00 | 23 | 1018.6 |
| 20260502011051 | 64 | 0 | 6.0 | 12.0 | 0.00 | 0.00 | 0.00 | 22 | 1018.4 |
| 20260502010550 | 64 | 0 | 6.0 | 14.0 | 0.00 | 0.00 | 0.00 | 22 | 1018.4 |
| 20260502010051 | 65 | 0 | 7.0 | 15.0 | 0.00 | 0.00 | 0.00 | 21 | 1018.4 |
| 20260502005820 | 65 | 0 | 7.0 | 15.0 | 0.00 | 0.00 | 0.00 | 22 | 1018.3 |
| 20260502005049 | 66 | 0 | 7.0 | 14.0 | 0.00 | 0.00 | 0.00 | 20 | 1018.3 |
| 20260502004822 | 67 | 0 | 5.0 | 14.0 | 0.00 | 0.00 | 0.00 | 21 | 1018.2 |
| 20260502004048 | 66 | 0 | 5.0 | 11.0 | 0.00 | 0.00 | 0.00 | 22 | 1018.2 |
| 20260502003549 | 66 | 0 | 6.0 | 11.0 | 0.00 | 0.00 | 0.00 | 21 | 1018.2 |
| 20260502003049 | 67 | 0 | 6.0 | 12.0 | 0.00 | 0.00 | 0.00 | 23 | 1018.3 |
| 20260502002549 | 67 | 0 | 7.0 | 13.0 | 0.00 | 0.00 | 0.00 | 21 | 1018.3 |
| 20260502002048 | 67 | 0 | 7.0 | 15.0 | 0.00 | 0.00 | 0.00 | 21 | 1018.3 |
| 20260502001818 | 67 | 0 | 5.0 | 15.0 | 0.00 | 0.00 | 0.00 | 23 | 1018.3 |
| 20260502001048 | 66 | 0 | 5.0 | 12.0 | 0.00 | 0.00 | 0.00 | 22 | 1018.3 |
| 20260502000547 | 66 | 0 | 7.0 | 13.0 | 0.00 | 0.00 | 0.00 | 20 | 1018.3 |
| 20260502000320 | 66 | 0 | 7.0 | 13.0 | 0.00 | 0.00 | 0.00 | 21 | 1018.2 |
| 20260501235819 | 65 | 0 | 5.0 | 11.0 | 0.00 | 0.00 | 0.00 | 22 | 1018.2 |
| 20260501235049 | 66 | 0 | 5.0 | 10.0 | 0.00 | 0.00 | 0.00 | 23 | 1018.2 |
| 20260501234819 | 67 | 0 | 7.0 | 13.0 | 0.00 | 0.00 | 0.00 | 21 | 1018.2 |
| 20260501234048 | 67 | 0 | 6.0 | 13.0 | 0.00 | 0.00 | 0.00 | 21 | 1018.2 |
| 20260501233549 | 66 | 0 | 5.0 | 11.0 | 0.00 | 0.00 | 0.00 | 23 | 1018.2 |
| 20260501233046 | 65 | 0 | 4.0 | 9.0 | 0.00 | 0.00 | 0.00 | 22 | 1018.1 |
| 20260501232547 | 65 | 0 | 5.0 | 12.0 | 0.00 | 0.00 | 0.00 | 22 | 1018.1 |
| 20260501232047 | 65 | 0 | 6.0 | 14.0 | 0.00 | 0.00 | 0.00 | 21 | 1018.1 |
| 20260501231547 | 65 | 0 | 5.0 | 14.0 | 0.00 | 0.00 | 0.00 | 23 | 1018.1 |
| 20260501231047 | 65 | 0 | 4.0 | 9.0 | 0.00 | 0.00 | 0.00 | 22 | 1018.1 |
| 20260501230547 | 66 | 0 | 4.0 | 9.0 | 0.00 | 0.00 | 0.00 | 23 | 1018.1 |
| 20260501230318 | 66 | 0 | 4.0 | 9.0 | 0.00 | 0.00 | 0.00 | 22 | 1018.0 |
| 20260501225547 | 66 | 0 | 4.0 | 9.0 | 0.00 | 0.00 | 0.00 | 23 | 1018.0 |
| 20260501225320 | 65 | 0 | 5.0 | 9.0 | 0.00 | 0.00 | 0.00 | 25 | 1018.1 |
| 20260501224547 | 65 | 0 | 5.0 | 9.0 | 0.00 | 0.00 | 0.00 | 22 | 1018.0 |
| 20260501224318 | 65 | 0 | 5.0 | 9.0 | 0.00 | 0.00 | 0.00 | 22 | 1018.0 |
| 20260501223544 | 65 | 0 | 6.0 | 9.0 | 0.00 | 0.00 | 0.00 | 24 | 1018.1 |
| 20260501223046 | 65 | 0 | 6.0 | 11.0 | 0.00 | 0.00 | 0.00 | 23 | 1018.2 |
| 20260501222545 | 65 | 0 | 7.0 | 15.0 | 0.00 | 0.00 | 0.00 | 24 | 1018.2 |
| 20260501222044 | 67 | 0 | 6.0 | 15.0 | 0.00 | 0.00 | 0.00 | 20 | 1018.1 |
| 20260501221545 | 68 | 0 | 6.0 | 14.0 | 0.00 | 0.00 | 0.00 | 21 | 1018.2 |
| 20260501221045 | 67 | 0 | 6.0 | 14.0 | 0.00 | 0.00 | 0.00 | 22 | 1018.2 |
| 20260501220546 | 67 | 0 | 5.0 | 14.0 | 0.00 | 0.00 | 0.00 | 24 | 1018.3 |
| 20260501220315 | 65 | 0 | 6.0 | 15.0 | 0.00 | 0.00 | 0.00 | 23 | 1018.3 |
| 20260501215545 | 66 | 0 | 7.0 | 17.0 | 0.00 | 0.00 | 0.00 | 23 | 1018.4 |
| 20260501215046 | 67 | 0 | 8.0 | 17.0 | 0.00 | 0.00 | 0.00 | 20 | 1018.6 |
| 20260501214545 | 68 | 0 | 6.0 | 13.0 | 0.00 | 0.00 | 0.00 | 20 | 1018.4 |
| 20260501214046 | 68 | 0 | 5.0 | 10.0 | 0.00 | 0.00 | 0.00 | 21 | 1018.4 |
| 20260501213818 | 67 | 0 | 6.0 | 13.0 | 0.00 | 0.00 | 0.00 | 21 | 1018.6 |
| 20260501213047 | 67 | 0 | 7.0 | 13.0 | 0.00 | 0.00 | 0.00 | 20 | 1018.6 |
| 20260501212545 | 67 | 0 | 7.0 | 19.0 | 0.00 | 0.00 | 0.00 | 21 | 1018.7 |
| 20260501212042 | 67 | 0 | 6.0 | 19.0 | 0.00 | 0.00 | 0.00 | 22 | 1018.7 |
| 20260501211543 | 67 | 0 | 5.0 | 12.0 | 0.00 | 0.00 | 0.00 | 21 | 1018.7 |
| 20260501211046 | 67 | 0 | 5.0 | 12.0 | 0.00 | 0.00 | 0.00 | 24 | 1018.9 |
| 20260501211040 | 67 | 0 | 5.0 | 12.0 | 0.00 | 0.00 | 0.00 | 22 | 1018.8 |